Location: ?ernice
(48.8383°N, 14.3803°E)
Time: 20:47:10
(UTC+00:00)

Cosmos 1300 Rocket - Pass Details

Date: 23 May 2024
Orbit: 597 x 624 km, 82.5° (Epoch: 20 June)

Event Time Altitude Azimuth Distance (km) Brightness Sun altitude
Rises 01:10:53 0° 348° (NNW) 2,876 7.7 -14.6°
Reaches altitude 10° 01:13:08 10° 346° (NNW) 1,963 6.8 -14.4°
Maximum altitude 01:17:26 68° 264° (W) 650 3.5 -14.0°
Enters shadow 01:20:34 18° 183° (S) 1,491 5.0 -13.7°
